Location: Junction City
(42.7860°N, 96.7861°W)
Time: 19:56:09
(UTC+00:00)

ISS - Visible Passes

Search period start: 25 November 2020 00:00
Search period end: 05 December 2020 00:00
Orbit: 418 x 421 km, 51.6° (Epoch: 26 November)

Date Brightness Start Highest point End Pass type
(mag) Time Alt. Az. Time Alt. Az. Time Alt. Az.
25 Nov -2.0 00:55:42 10° WNW 00:58:21 24° NNW 00:58:21 24° NNW visible
26 Nov -2.4 00:07:52 10° W 00:10:55 31° NNW 00:12:47 18° NNE visible
27 Nov -1.5 00:58:19 10° NW 01:00:09 18° NNW 01:00:09 18° NNW visible
28 Nov -1.9 00:10:27 10° WNW 00:13:05 21° NNW 00:14:32 16° NNE visible
28 Nov -2.1 23:22:34 10° WNW 23:25:24 24° NNW 23:28:14 10° NE visible
29 Nov -1.3 01:00:37 10° NW 01:01:51 15° NNW 01:01:51 15° NNW visible
30 Nov -1.8 00:12:54 10° NW 00:15:18 18° N 00:16:13 16° NNE visible
30 Nov -1.8 23:25:05 10° NW 23:27:33 19° N 23:30:02 10° NE visible
01 Dec -1.3 01:02:29 10° NW 01:03:34 16° NNW 01:03:34 16° NNW visible
02 Dec -2.0 00:14:57 10° NW 00:17:28 19° N 00:17:58 19° NNE visible
02 Dec -1.9 23:27:18 10° NW 23:29:43 18° N 23:32:08 10° NE visible
03 Dec -1.6 01:04:04 10° NW 01:05:23 20° NNW 01:05:23 20° NNW visible
04 Dec -2.6 00:16:35 10° NW 00:19:32 27° NNE 00:19:55 26° NNE visible
04 Dec -2.3 23:29:05 10° NW 23:31:48 22° NNE 23:34:32 10° ENE visible
